Погода в Журавлеве

Россия / Красноярский край     54°09′39″N   93°15′08″E
темп.,
°C
ветер,
м/с
пор.,
м/с
влажн.,
%
обл.,
%
осадки,
мм/ч
давл.,
гПа
погр.,
м
9 марта, вт
вт901:00−1ююв2699100 0.3 1013382
04:00−1ююз31098100 3.1 1013857
07:00−3ююз4149598 3.2 1016767
10:00−2з61188100 0.7 10211053
13:00−3зсз497095 0.8 10241134
16:00−4з3582100 0.0 1026977
19:00−10з018676 0.0 102921
22:00−12в11920 0.0 102921
10 марта, ср
ср1001:00−14всв129533 0.0 102721
04:00−13всв1291100 0.0 102621
07:00−15в119090 0.0 102420
10:00−8вюв128562 0.0 1023178
13:00−3юв129373 0.0 1020374
16:00−1юв129545 0.0 1019344
19:00−6вюв119727 0.0 101921
22:00−7всв129824 0.0 101922
11 марта, чт
чт1101:00−8всв229550 0.0 101624
04:00−9всв129337 0.0 101421
07:00−10в129151 0.0 101321
10:00−5в1290100 0.0 1013147
13:00−1ююв2497100 0.0 1013360
16:000юв13100100 0.0 1013274
19:00−1ююв1299100 0.4 101595
22:00−1зсз1699100 3.4 1018430
12 марта, пт
пт1201:00−3ююз2297100 4.6 102052
04:00−6юв1197100 0.1 102121
07:00−7в1298100 0.1 101922
10:00−3всв239593 0.0 1015189
13:00−1зюз369696 0.0 1012722
16:00−1юз41482100 0.0 10131481
19:00−5з2289100 0.1 101551
22:00−7ююз1196100 0.2 101728
13 марта, сб
сб1301:00−8юз0197100 0.9 101728
04:00−9ююз1398100 0.7 1016151
07:00−8ю1297100 1.1 101647
10:00−7юз2496100 1.4 1015391
13:00−7з4793100 3.2 1015756
16:00−10зсз6887100 0.5 10191058
19:00−14з41093100 0.7 1025619
22:00−18з3118798 0.1 1030542